Weather History for Wright-Patt AFB, OH

Change the Weather History Date:

Wednesday, June 26, 2013

  Actual Average Record
Temperature  
Mean Temperature 75 °F -  
Max Temperature 84 °F 81 °F 95 °F (2005)
Min Temperature 68 °F 60 °F 50 °F (2012)
Cooling Degree Days 10    
Growing Degree Days 25 (Base 50)    
Moisture  
Dew Point 67 °F    
Average Humidity 79    
Maximum Humidity 94    
Minimum Humidity 58    
Precipitation  
Precipitation 0.40 in - - ()
Sea Level Pressure  
Sea Level Pressure 29.88 in    
Wind  
Wind Speed 9 mph (SSW)    
Max Wind Speed 16 mph    
Max Gust Speed 31 mph    
Visibility 10 miles    
Events Rain , Thunderstorm    
Averages and records for this station are not official NWS values.
T = Trace of Precipitation, MM = Missing Value Source: NWS Daily Summary

Daily Weather History Graph

Daily Weather History Graph

Search for Another Location

Airport:

Trip Planner

Search our weather history database for the weather conditions in past years. The results will help you decide how hot, cold, wet, or windy it might be!

Date:

Astronomy

Jun. 26, 2013 Rise Set
Actual Time 6:09 AM EDT 9:08 PM EDT
Civil Twilight 5:36 AM EDT 9:41 PM EDT
Nautical Twilight 4:55 AM EDT 10:22 PM EDT
Astronomical Twilight 4:07 AM EDT 11:10 PM EDT
Moon 11:31 PM EDT (6/26) 9:59 AM EDT (6/26)
Length of Visible Light 16h 04m
Length of Day
14h 58m
Waning Gibbous, 85% of the Moon is Illuminated
Jun 26
Waning Gibbous
Jun 30
Last Quarter
Jul 8
New
Jul 15
First Quarter
Jul 22
Full

Hourly Weather History & Observations

Time (EDT) Temp. Heat Index Dew Point Humidity Pressure Visibility Wind Dir Wind Speed Gust Speed Precip Events Conditions
12:50 AM 80.6 °F 83.9 °F 69.8 °F 70% 29.91 in 10.0 mi SW 9.2 mph - N/A Thunderstorm Mostly Cloudy
12:58 AM 80.1 °F 83.2 °F 70.0 °F 71% 29.91 in 10.0 mi WSW 10.4 mph - N/A Thunderstorm Thunderstorm
1:50 AM 80.6 °F 83.9 °F 69.8 °F 70% 29.91 in 10.0 mi WSW 15.0 mph 26.5 mph N/A Thunderstorm Thunderstorm
1:58 AM 79.9 °F - 69.6 °F 71% 29.90 in 10.0 mi WSW 13.8 mph 21.9 mph 0.00 in Rain , Thunderstorm Light Thunderstorms and Rain
2:03 AM 80.6 °F 83.9 °F 69.8 °F 70% 29.91 in 10.0 mi WSW 13.8 mph - N/A Rain , Thunderstorm Light Thunderstorms and Rain
2:20 AM 75.2 °F - 68.0 °F 78% 29.92 in 10.0 mi NW 9.2 mph - N/A Rain , Thunderstorm Light Thunderstorms and Rain
2:34 AM 73.4 °F - 66.2 °F 78% 29.93 in 10.0 mi NW 12.7 mph 17.3 mph N/A   Overcast
2:43 AM 73.4 °F - 66.2 °F 78% 29.92 in 10.0 mi NW 4.6 mph 17.3 mph N/A   Mostly Cloudy
2:48 AM 73.4 °F - 66.2 °F 78% 29.91 in 10.0 mi WNW 4.6 mph - N/A Rain Light Rain
2:58 AM 72.7 °F - 66.7 °F 82% 29.92 in 10.0 mi West 6.9 mph - 0.01 in Rain Light Rain
3:04 AM 71.6 °F - 66.2 °F 83% 29.93 in 10.0 mi WNW 4.6 mph - N/A   Mostly Cloudy
3:20 AM 71.6 °F - 66.2 °F 83% 29.94 in 10.0 mi North 5.8 mph - N/A Rain Light Rain
3:40 AM 71.6 °F - 66.2 °F 83% 29.93 in 10.0 mi NNE 4.6 mph - N/A   Overcast
3:58 AM 70.0 °F - 67.1 °F 91% 29.91 in 8.0 mi NW 2.3 mph - 0.08 in   Mostly Cloudy
4:18 AM 69.8 °F - 66.2 °F 88% 29.92 in 7.0 mi ENE 4.6 mph - N/A   Mostly Cloudy
4:58 AM 69.3 °F - 66.2 °F 90% 29.93 in 8.0 mi SW 5.8 mph - N/A   Overcast
5:43 AM 69.8 °F - 68.0 °F 94% 29.95 in 8.0 mi SW 8.1 mph - N/A Rain Light Rain
5:58 AM 70.0 °F - 66.9 °F 90% 29.94 in 9.0 mi SSW 5.8 mph - 0.00 in Rain Light Rain
6:58 AM 68.9 °F - 66.2 °F 91% 29.90 in 8.0 mi South 3.5 mph - 0.01 in   Mostly Cloudy
7:58 AM 70.0 °F - 67.1 °F 91% 29.92 in 9.0 mi WSW 12.7 mph - N/A   Mostly Cloudy
8:58 AM 72.3 °F - 65.8 °F 80% 29.91 in 10.0 mi West 5.8 mph - N/A   Mostly Cloudy
9:58 AM 74.8 °F - 66.0 °F 74% 29.92 in 10.0 mi SW 9.2 mph - N/A   Overcast
10:58 AM 77.5 °F - 65.3 °F 66% 29.90 in 10.0 mi SSW 11.5 mph - N/A   Overcast
11:58 AM 81.0 °F 82.7 °F 64.8 °F 58% 29.92 in 10.0 mi WSW 9.2 mph - N/A   Mostly Cloudy
12:58 PM 82.2 °F 84.6 °F 66.4 °F 59% 29.91 in 10.0 mi SSW 12.7 mph - N/A   Mostly Cloudy
1:58 PM 82.8 °F 85.5 °F 67.5 °F 60% 29.89 in 10.0 mi SSW 9.2 mph - N/A   Mostly Cloudy
2:58 PM 82.8 °F 85.5 °F 67.8 °F 60% 29.85 in 10.0 mi South 10.4 mph - N/A   Mostly Cloudy
3:44 PM 82.4 °F 85.4 °F 68.0 °F 62% 29.85 in 10.0 mi SSE 6.9 mph - N/A Thunderstorm Mostly Cloudy
3:58 PM 82.4 °F 86.3 °F 69.8 °F 66% 29.83 in 10.0 mi SE 10.4 mph - N/A Rain , Thunderstorm Light Rain
4:18 PM 80.6 °F 82.7 °F 66.2 °F 61% 29.85 in 5.0 mi WSW 16.1 mph 31.1 mph N/A Rain , Thunderstorm Light Thunderstorms and Rain
4:58 PM 71.1 °F - 66.4 °F 85% 29.82 in 10.0 mi ENE 5.8 mph - 0.16 in Thunderstorm Thunderstorm
5:10 PM 73.4 °F - 68.0 °F 83% 29.83 in 10.0 mi ESE 9.2 mph - N/A Thunderstorm Mostly Cloudy
5:58 PM 76.3 °F - 68.0 °F 75% 29.81 in 10.0 mi ESE 4.6 mph - N/A Thunderstorm Overcast
6:32 PM 73.4 °F - 68.0 °F 83% 29.82 in 10.0 mi SSE 3.5 mph - N/A Rain , Thunderstorm Light Thunderstorms and Rain
6:58 PM 72.7 °F - 69.4 °F 90% 29.82 in 10.0 mi SE 8.1 mph - 0.10 in Rain , Thunderstorm Light Thunderstorms and Rain
7:27 PM 71.6 °F - 68.0 °F 88% 29.80 in 10.0 mi South 4.6 mph - N/A   Overcast
7:58 PM 72.1 °F - 69.1 °F 90% 29.81 in 10.0 mi SSE 8.1 mph - 0.04 in   Overcast
8:58 PM 71.6 °F - 68.4 °F 89% 29.81 in 10.0 mi SSE 5.8 mph - N/A   Overcast
9:58 PM 70.5 °F - 68.2 °F 92% 29.78 in 10.0 mi South 6.9 mph - N/A   Mostly Cloudy
10:38 PM 69.8 °F - 68.0 °F 94% 29.79 in 10.0 mi South 6.9 mph - N/A   Mostly Cloudy
10:58 PM 69.8 °F - 68.0 °F 94% 29.80 in 10.0 mi South 5.8 mph - N/A   Mostly Cloudy
11:58 PM 70.3 °F - 68.4 °F 93% 29.80 in 10.0 mi South 6.9 mph - N/A   Mostly Cloudy